Wetbulb
62.24 61.99 61.63 61.21 61.03 60.92 61.21 60.92 59.99 59.04 58.44 58.32 58.24 58.58 59.11 59.78 59.89 59.25 58.38 57.93 58.17 58.49 58.15 58.49 58.68 57.90 52.34 42.71 44.70 49.20 58.16 56.43 52.88 52.44 48.56 46.89 44.72 42.25 40.04 41.04 42.97 40.37 41.40 43.38 43.73 44.10 40.68
61.78 61.40 61.14 60.85 60.73 60.74 61.07 60.50 59.95 58.76 58.35 58.11 57.87 58.35 58.47 59.07 59.37 59.03 58.41 57.75 57.41 57.31 57.37 57.82 58.13 57.29 44.67 40.77 49.34 50.48 51.40 52.36 51.18 50.00 49.65 47.69 44.80 44.77 42.11 41.65 40.85 43.11 42.55 42.87 43.65 42.86 42.43
60.98 61.34 60.96 60.51 60.31 60.37 60.61 59.72 59.42 58.91 58.93 58.55 58.41 58.15 57.95 58.59 57.97 57.20 56.84 56.14 55.53 55.61 56.06 56.71 57.29 54.53 46.46 44.93 50.34 50.79 51.81 50.94 51.03 50.25 48.86 49.82 47.32 43.89 43.71 42.32 44.56 43.82 40.02 41.59 41.38 41.60 41.98
58.93 59.42 60.28 60.13 59.66 59.32 59.24 58.87 59.09 58.95 58.13 57.49 56.95 55.99 55.08 54.37 54.09 53.72 53.60 53.49 53.68 54.31 54.83 55.62 56.51 50.86 41.23 50.56 50.89 52.38 50.96 51.60 52.09 51.38 50.21 51.20 48.36 44.91 42.89 44.31 43.45 38.77 37.79 35.09 40.39 41.67 41.63
58.60 58.37 59.06 58.73 56.83 56.46 56.99 57.29 57.51 57.59 57.20 56.36 55.35 54.42 53.82 53.33 52.98 52.85 52.91 53.20 53.47 54.56 55.11 55.53 49.74 47.01 41.92 53.08 48.70 51.13 53.06 50.18 50.37 49.66 49.50 51.47 47.14 42.44 42.69 37.70 36.09 36.05 32.50 32.92 37.81 40.81 38.64
58.08 57.46 57.20 56.52 56.08 55.42 55.70 56.18 56.47 56.13 55.35 54.90 54.48 53.99 53.17 52.61 52.50 52.50 52.40 52.87 53.31 53.51 54.50 55.11 53.01 43.65 47.07 46.30 49.62 51.99 49.41 49.98 47.60 46.91 45.83 44.36 40.57 37.43 36.78 35.81 29.21 31.79 32.32 31.64 33.30 38.12 38.77
58.36 58.01 57.71 57.22 56.68 56.38 55.55 56.09 55.99 55.29 54.82 54.56 54.11 53.57 52.87 52.44 52.71 52.51 50.65 47.04 42.92 40.89 45.87 44.67 45.58 43.81 46.95 50.94 52.82 50.54 51.47 50.20 46.20 43.55 38.57 40.25 35.95 33.71 36.26 37.92 38.42 36.58 34.45 33.60 35.82 39.67 37.51
57.57 57.37 57.29 57.52 56.85 56.41 56.64 56.18 55.24 54.66 54.68 54.51 53.80 52.71 52.44 52.25 52.58 52.27 48.81 43.74 47.28 43.91 37.74 44.58 44.82 45.25 48.33 49.78 45.01 47.79 52.33 45.30 42.01 37.85 38.79 36.34 33.44 39.31 40.24 39.38 38.18 36.89 34.50 33.23 37.12 40.16 37.80
56.58 56.68 56.98 57.14 56.72 56.30 56.27 56.30 55.37 54.80 54.60 54.13 53.31 52.66 52.25 51.85 51.92 49.50 48.37 46.86 49.87 49.46 35.91 40.02 45.33 44.56 45.72 47.51 42.99 43.96 48.24 44.54 40.38 36.96 37.16 33.84 36.40 41.07 39.62 37.10 35.44 34.07 33.13 33.48 35.18 36.96 35.62
55.65 55.65 56.11 56.58 56.30 55.98 55.61 55.47 55.20 54.70 54.25 53.64 53.03 52.26 51.16 51.49 45.95 48.02 46.50 48.90 48.89 46.31 29.59 34.65 37.73 42.97 45.16 46.17 40.82 47.59 48.23 43.77 39.00 37.64 37.62 35.57 39.08 38.13 37.47 34.87 35.87 30.49 37.31 37.50 35.66 32.62 28.88
54.92 54.90 55.14 55.61 55.43 54.70 54.51 54.55 54.49 54.51 54.27 53.54 52.75 52.08 51.42 50.69 43.22 44.12 47.44 48.40 48.64 40.95 21.51 37.46 38.43 46.10 44.39 40.15 40.66 42.77 46.37 43.58 37.13 37.18 37.33 34.87 36.23 35.87 34.71 36.02 37.63 34.52 39.48 36.86 35.07 30.66 28.54
54.17 54.60 54.58 54.51 54.60 54.17 53.93 54.01 53.72 53.72 53.83 53.14 52.42 51.64 51.32 46.09 43.56 44.24 46.85 46.63 40.30 27.01 20.02 33.28 40.79 39.56 38.68 39.83 40.61 42.99 43.15 43.80 41.99 37.17 36.63 35.40 38.14 36.77 36.68 38.72 38.37 39.23 36.06 34.34 32.08 30.05 22.86
53.18 53.70 53.91 53.86 53.89 53.78 53.43 53.35 52.98 53.02 52.97 52.95 52.24 51.37 48.47 47.54 40.35 45.34 45.77 38.69 24.64 19.00 34.09 32.57 34.09 36.54 35.97 36.87 38.07 38.07 37.95 35.99 33.55 30.35 28.92 33.68 34.63 37.84 39.80 34.87 36.57 35.47 31.85 24.37 22.53 22.10 23.30
51.55 51.85 52.07 52.73 53.32 53.22 53.24 52.76 52.58 52.33 51.78 52.41 51.58 50.53 48.30 47.59 44.71 45.34 41.28 34.03 20.94 29.46 29.35 35.49 34.77 34.46 31.44 36.21 36.63 37.78 35.17 32.68 36.04 33.41 29.00 27.16 26.18 33.88 38.06 36.95 34.00 32.93 31.90 25.16 20.67 20.20 22.35
50.17 50.14 50.04 50.47 51.08 52.27 52.85 52.66 52.36 51.98 51.46 51.69 49.40 43.10 43.20 43.71 45.12 45.43 37.38 25.06 26.15 28.72 33.24 32.10 32.91 28.97 30.70 35.15 34.74 35.56 33.46 32.78 36.15 35.98 30.23 27.57 27.85 35.03 36.75 37.52 38.70 33.79 29.73 35.27 28.46 26.04 21.84
48.97 48.56 48.79 49.23 49.09 50.06 51.73 52.45 52.39 51.87 51.60 49.58 43.95 39.82 39.55 43.65 45.19 43.49 36.66 31.20 31.02 33.71 33.49 32.60 26.40 29.71 26.24 30.29 31.85 31.72 32.46 35.88 35.58 37.38 37.09 33.16 26.26 33.36 35.72 36.30 35.50 35.95 37.43 29.09 27.68 21.70 18.36
48.71 48.09 48.17 48.95 48.63 48.38 49.28 51.14 52.10 51.91 51.34 48.29 42.21 35.44 38.83 43.85 44.74 40.51 31.42 30.01 32.22 36.49 36.34 30.84 29.14 28.85 29.56 29.11 30.93 29.78 31.94 35.41 35.28 34.60 35.51 32.74 29.21 29.99 32.99 30.91 30.15 32.13 30.95 31.49 31.13 27.74 22.70
47.66 48.11 48.13 48.55 48.04 47.47 47.07 47.94 50.82 51.43 50.24 47.54 41.74 33.17 39.73 43.22 30.39 34.04 31.75 34.31 36.64 33.70 36.09 33.19 32.12 31.77 30.48 31.37 30.27 30.94 31.83 35.69 38.81 37.02 31.45 35.00 30.73 24.59 28.11 34.27 36.47 33.80 31.10 32.02 25.80 25.52 26.29
46.11 45.92 46.41 46.37 45.93 46.28 46.19 46.44 47.57 50.78 49.55 44.76 37.92 37.69 44.14 40.88 23.78 26.63 32.61 31.96 33.92 32.17 31.72 31.12 30.79 31.98 32.72 29.40 26.93 31.17 32.55 38.33 39.36 37.71 34.55 35.05 29.29 22.80 25.25 29.56 34.01 31.30 32.19 32.20 30.57 28.22 23.80
45.07 44.65 44.97 45.08 45.39 45.50 45.51 45.76 45.60 48.83 48.94 44.15 37.97 31.54 36.67 41.14 33.49 29.30 29.36 28.75 29.04 34.68 33.09 33.75 32.03 32.05 29.87 28.03 30.57 28.43 31.21 37.39 38.88 38.52 42.36 39.05 31.26 27.54 22.22 26.51 31.00 28.16 31.04 31.63 29.45 22.32 22.80
44.93 45.14 45.25 45.14 45.10 45.04 44.99 45.58 45.38 46.95 48.01 43.86 37.82 33.38 33.77 30.70 33.11 32.58 30.96 30.45 28.35 28.34 33.48 33.41 30.60 29.90 28.74 25.29 27.65 27.26 31.16 33.82 36.48 39.54 38.15 35.35 28.73 30.67 30.99 31.93 32.30 29.96 29.78 30.35 27.69 27.64 24.29
44.74 45.23 45.17 45.52 44.51 44.37 44.64 45.90 46.14 46.90 48.22 41.73 33.53 33.67 37.15 34.38 34.10 34.69 33.79 31.98 29.68 31.56 32.06 31.06 29.75 32.42 31.96 26.37 28.04 26.66 31.63 31.99 32.34 35.37 33.74 34.77 27.45 29.28 26.98 31.26 31.64 28.43 28.93 29.64 30.80 31.15 30.30
44.61 44.72 45.23 45.50 44.67 44.08 44.24 45.25 46.66 46.29 45.74 40.38 41.07 38.81 36.98 32.99 31.74 32.18 31.11 32.36 31.83 34.60 34.87 35.75 34.25 32.21 31.13 32.83 34.69 34.38 34.57 34.55 35.25 34.29 32.25 32.29 28.97 27.12 23.74 28.86 28.64 23.04 27.76 30.17 31.42 32.62 31.70
45.10 44.58 44.25 44.57 44.58 44.14 44.21 45.33 46.12 46.75 44.76 39.79 40.51 40.35 33.79 27.13 31.26 30.44 32.65 33.14 32.54 33.54 32.00 35.09 35.82 32.90 35.69 40.60 39.02 37.92 36.31 36.04 36.24 35.34 36.46 32.17 29.97 28.86 24.82 27.94 19.23 26.94 33.05 33.59 30.57 31.32 32.79
44.85 44.69 43.57 43.74 44.23 44.37 45.01 45.18 45.63 46.35 46.24 39.73 41.64 40.35 35.63 26.34 30.30 30.63 32.16 32.55 33.44 34.70 33.84 34.91 36.91 38.49 40.99 38.47 31.95 29.61 28.65 29.31 30.80 34.60 35.18 35.61 31.44 26.34 22.43 22.42 25.95 28.70 32.47 30.42 28.39 28.85 33.91
44.74 43.99 43.34 43.26 44.13 44.23 44.42 44.79 45.22 45.95 45.70 40.14 38.73 40.86 38.48 32.63 28.17 33.54 31.02 32.55 30.07 29.17 31.45 33.14 38.29 40.33 39.41 33.89 30.34 23.90 22.79 26.47 25.94 30.06 35.11 33.81 32.97 27.87 24.67 20.46 16.71 26.58 33.78 36.63 34.71 25.80 34.60
44.35 43.91 43.05 43.22 44.23 44.31 44.62 45.09 45.34 45.83 45.58 41.08 38.73 40.70 37.00 32.55 32.71 36.37 34.22 31.38 34.31 32.87 28.76 31.42 33.80 34.95 37.38 30.89 27.97 25.79 25.03 30.46 23.84 25.11 26.32 27.65 26.74 25.26 25.38 23.53 25.31 32.47 35.49 37.68 25.01 26.25 34.74
44.02 44.06 43.72 43.75 43.96 44.09 44.43 45.15 45.48 45.40 45.65 41.36 38.65 40.93 37.28 34.24 36.09 38.83 38.61 36.52 37.10 35.72 30.38 32.90 32.56 29.69 31.08 27.71 28.43 27.72 26.90 27.52 26.30 28.46 27.96 26.58 24.48 23.24 24.99 22.83 19.82 35.95 34.25 28.87 32.95 35.22 37.37
43.52 43.48 43.36 43.48 43.67 43.80 44.09 44.79 45.38 45.29 44.95 43.51 37.69 40.59 41.66 36.31 33.18 39.49 40.22 40.49 39.98 40.39 37.33 35.70 34.16 32.25 32.66 27.95 29.30 30.24 27.06 26.97 26.90 22.40 32.85 21.88 28.89 27.14 27.85 26.48 34.86 36.91 36.10 38.65 38.75 37.27 37.35
MSLP
1018.64 1018.68 1018.79 1018.94 1018.99 1019.27 1019.29 1019.38 1019.56 1019.61 1019.71 1020.01 1020.10 1019.95 1019.83 1019.88 1019.61 1019.51 1019.40 1019.36 1019.06 1018.71 1018.47 1018.21 1017.89 1016.94 1016.08 1015.67 1013.85 1012.24 1012.15 1011.98 1011.75 1011.59 1011.65 1011.86 1012.32 1012.33 1012.39 1012.13 1011.78 1011.55 1011.26 1011.04 1010.71 1010.62 1010.69
1018.31 1018.37 1018.56 1018.71 1018.84 1019.10 1018.89 1019.15 1019.42 1019.45 1019.63 1019.66 1019.85 1019.77 1019.68 1019.53 1019.41 1019.39 1019.23 1018.95 1018.77 1018.73 1018.46 1018.14 1018.07 1017.35 1016.93 1015.61 1012.29 1012.24 1012.34 1012.04 1012.07 1012.10 1011.99 1011.92 1012.15 1012.35 1012.35 1012.27 1012.21 1011.84 1011.54 1011.06 1010.69 1010.61 1010.62
1017.90 1018.11 1018.25 1018.42 1018.52 1018.67 1018.74 1018.98 1019.09 1019.26 1019.36 1019.50 1019.57 1019.49 1019.45 1019.49 1019.32 1019.14 1019.04 1018.80 1018.72 1018.53 1018.17 1018.07 1018.05 1018.03 1016.98 1014.17 1012.53 1012.46 1012.38 1011.54 1011.47 1011.94 1012.05 1011.83 1011.93 1012.29 1012.46 1012.47 1012.30 1012.10 1011.94 1011.13 1010.67 1010.57 1010.63
1017.78 1017.81 1017.71 1017.97 1018.13 1018.24 1018.55 1018.72 1018.86 1019.04 1019.36 1019.57 1019.63 1019.72 1019.64 1019.36 1019.50 1019.07 1018.87 1018.62 1018.27 1018.15 1017.81 1017.89 1017.97 1018.13 1015.94 1012.46 1012.50 1012.53 1011.93 1011.33 1011.00 1011.26 1011.84 1011.68 1011.87 1012.29 1012.59 1012.61 1012.51 1012.62 1012.55 1012.11 1011.20 1011.13 1011.20
1017.83 1017.85 1017.93 1018.07 1018.16 1018.40 1018.54 1018.71 1018.88 1019.24 1019.51 1019.52 1019.85 1019.83 1019.58 1019.06 1019.16 1018.72 1018.53 1018.08 1017.71 1017.74 1017.79 1017.78 1018.19 1017.92 1014.95 1012.34 1012.39 1011.83 1011.69 1011.28 1010.95 1011.00 1011.16 1011.58 1012.02 1012.93 1013.23 1013.46 1013.59 1013.63 1013.31 1012.85 1012.12 1011.50 1011.76
1017.95 1018.08 1018.14 1018.31 1018.42 1018.52 1018.78 1018.91 1019.11 1019.14 1019.60 1019.85 1019.83 1019.86 1019.55 1019.61 1019.25 1019.12 1018.50 1017.32 1017.28 1017.63 1017.65 1017.56 1017.60 1017.95 1014.31 1013.13 1012.34 1012.00 1011.55 1011.42 1011.28 1011.19 1011.49 1011.99 1013.09 1013.67 1014.30 1014.36 1014.29 1013.96 1013.69 1013.29 1012.85 1011.94 1011.84
1017.59 1017.84 1018.18 1018.38 1018.51 1018.51 1018.72 1019.19 1019.34 1019.59 1019.75 1019.77 1019.86 1019.83 1019.83 1019.72 1019.12 1019.15 1018.58 1017.40 1018.04 1017.91 1017.75 1017.21 1016.75 1016.01 1014.43 1013.16 1012.60 1011.88 1011.75 1011.91 1011.79 1011.91 1012.33 1012.90 1013.85 1013.67 1013.75 1013.99 1014.00 1014.05 1013.99 1013.67 1012.67 1012.09 1012.10
1017.88 1018.08 1018.00 1018.40 1018.65 1018.78 1018.77 1018.78 1019.28 1019.63 1019.50 1019.66 1019.99 1019.80 1020.07 1019.76 1019.27 1019.21 1018.66 1019.07 1018.72 1019.38 1018.01 1016.41 1015.46 1014.72 1013.31 1013.49 1012.89 1012.22 1012.37 1012.51 1012.48 1012.67 1012.88 1013.63 1013.50 1013.23 1013.41 1013.76 1014.02 1014.06 1013.95 1013.63 1012.80 1012.00 1012.11
1017.59 1017.77 1018.02 1017.88 1018.32 1018.73 1018.87 1019.01 1019.18 1019.49 1019.72 1019.86 1020.08 1020.17 1020.11 1019.86 1019.32 1019.12 1019.28 1019.67 1019.32 1019.14 1018.65 1015.60 1014.25 1013.84 1013.02 1013.21 1013.21 1011.99 1011.97 1011.72 1012.37 1012.98 1013.24 1013.42 1013.03 1012.81 1013.08 1013.27 1013.68 1013.67 1013.71 1013.51 1013.13 1012.54 1012.27
1017.35 1017.92 1017.91 1018.12 1018.19 1018.25 1018.77 1019.04 1019.12 1019.46 1019.68 1019.93 1020.21 1020.25 1020.09 1019.95 1019.86 1019.69 1019.71 1019.51 1019.32 1019.01 1018.58 1015.46 1013.91 1012.78 1012.61 1012.50 1012.69 1011.89 1011.38 1011.78 1012.43 1012.50 1013.29 1013.15 1012.63 1012.72 1012.86 1012.94 1013.22 1012.88 1012.70 1012.94 1013.12 1013.30 1013.31
1017.26 1017.38 1017.63 1018.38 1018.31 1018.42 1018.73 1018.79 1019.31 1019.50 1019.87 1019.93 1020.01 1020.15 1020.24 1020.17 1020.44 1020.02 1020.15 1019.58 1019.34 1019.00 1018.32 1014.80 1013.23 1012.27 1012.41 1012.76 1012.25 1011.66 1011.42 1011.60 1012.14 1012.86 1013.56 1012.87 1012.56 1012.52 1012.60 1012.40 1012.31 1012.19 1012.00 1012.72 1013.23 1013.70 1013.88
1016.92 1017.28 1017.54 1017.90 1018.29 1018.41 1018.59 1018.90 1019.10 1019.27 1019.60 1019.93 1020.11 1020.30 1020.33 1020.70 1020.70 1020.20 1019.89 1019.71 1019.75 1019.76 1017.42 1014.59 1013.35 1012.88 1012.88 1012.70 1012.42 1011.89 1011.69 1011.85 1012.29 1013.06 1013.20 1012.82 1012.63 1012.57 1012.33 1012.03 1012.06 1012.21 1012.71 1013.47 1014.08 1014.67 1014.59
1017.02 1017.01 1017.28 1017.85 1017.96 1018.22 1018.44 1018.75 1019.00 1019.29 1019.60 1019.88 1020.12 1020.48 1020.67 1020.89 1020.77 1020.34 1020.15 1020.13 1020.97 1019.56 1016.70 1015.59 1014.56 1013.89 1013.63 1013.23 1012.97 1012.58 1012.63 1012.73 1013.07 1013.65 1013.63 1013.24 1012.42 1011.93 1011.93 1012.28 1012.17 1012.57 1013.42 1014.49 1015.09 1015.55 1014.65
1017.03 1017.13 1017.55 1017.76 1018.18 1018.21 1018.21 1018.53 1018.81 1019.21 1019.64 1019.90 1020.20 1020.51 1020.97 1020.92 1020.68 1020.61 1020.56 1021.06 1020.57 1018.41 1017.18 1015.93 1015.26 1014.51 1014.31 1013.92 1013.64 1013.46 1013.42 1013.39 1013.32 1013.79 1014.18 1014.11 1012.66 1012.00 1011.56 1011.51 1011.67 1012.26 1013.15 1014.34 1014.58 1015.31 1015.11
1017.46 1017.37 1017.48 1017.80 1018.06 1018.26 1018.34 1018.28 1018.75 1019.13 1019.48 1020.02 1020.48 1021.04 1021.32 1020.87 1020.74 1020.85 1021.03 1020.75 1019.28 1018.48 1017.44 1016.71 1015.83 1015.43 1015.00 1014.54 1014.59 1014.24 1014.14 1013.90 1013.47 1013.44 1014.12 1013.78 1012.94 1011.68 1011.38 1011.06 1011.43 1011.87 1012.53 1012.76 1014.08 1015.35 1015.75
1017.35 1017.67 1017.77 1017.90 1018.10 1018.24 1018.25 1018.21 1018.44 1018.94 1019.53 1020.16 1020.59 1021.39 1021.41 1020.77 1020.83 1021.23 1021.15 1020.08 1019.15 1018.35 1017.80 1017.31 1016.83 1016.42 1016.02 1015.61 1015.53 1015.05 1014.76 1013.99 1013.69 1013.43 1013.15 1013.37 1013.23 1012.04 1011.46 1011.20 1011.32 1011.24 1011.90 1012.88 1014.05 1015.14 1015.72
1017.61 1017.59 1017.90 1018.15 1018.16 1018.38 1018.37 1018.18 1018.18 1018.69 1019.42 1020.12 1020.78 1021.63 1020.89 1020.78 1021.03 1021.44 1020.82 1020.32 1019.48 1018.63 1018.23 1018.05 1017.50 1017.08 1016.77 1016.42 1016.15 1015.60 1014.79 1014.26 1014.17 1014.03 1013.70 1013.59 1013.74 1012.73 1012.16 1011.89 1011.73 1011.86 1012.07 1013.03 1013.92 1014.93 1015.63
1017.44 1017.59 1018.07 1018.11 1018.37 1018.41 1018.56 1018.45 1018.09 1018.59 1019.32 1019.97 1020.68 1021.69 1021.03 1021.03 1021.84 1021.32 1020.86 1020.33 1020.17 1019.30 1018.67 1018.48 1018.10 1017.76 1017.28 1016.88 1016.38 1015.73 1014.76 1013.97 1013.87 1014.45 1014.65 1014.47 1014.01 1013.87 1013.22 1012.61 1012.47 1012.29 1012.72 1013.22 1014.64 1015.74 1016.37
1017.54 1017.69 1018.00 1018.35 1018.37 1018.64 1018.80 1018.46 1018.14 1018.46 1019.02 1019.90 1020.57 1021.26 1021.23 1021.14 1021.47 1021.57 1021.23 1020.79 1020.49 1019.77 1019.33 1019.07 1018.61 1018.18 1017.35 1017.07 1016.76 1015.61 1014.81 1013.94 1013.54 1014.03 1014.91 1015.40 1014.70 1014.69 1013.89 1013.51 1013.11 1013.21 1013.64 1014.11 1014.93 1015.87 1015.94
1017.35 1017.77 1018.20 1018.40 1018.22 1018.80 1018.86 1018.59 1018.33 1018.67 1019.07 1020.12 1020.72 1021.22 1021.53 1021.16 1021.20 1021.29 1021.38 1020.99 1020.59 1019.67 1019.55 1019.22 1018.77 1018.54 1018.18 1017.55 1017.05 1016.05 1015.08 1014.20 1013.77 1013.34 1014.11 1014.98 1015.70 1016.07 1015.37 1014.76 1014.51 1014.38 1014.10 1014.47 1015.25 1016.15 1016.10
1017.21 1017.70 1017.98 1018.39 1018.72 1018.87 1018.52 1018.55 1018.47 1018.57 1019.11 1019.78 1020.49 1020.71 1020.86 1020.85 1020.85 1021.09 1021.13 1020.71 1020.17 1020.04 1019.34 1018.93 1018.47 1018.44 1018.55 1018.23 1017.42 1016.69 1015.71 1014.85 1014.26 1014.22 1014.64 1014.64 1015.16 1015.67 1015.64 1015.26 1014.76 1014.29 1014.13 1014.39 1014.99 1015.22 1015.73
1017.10 1017.62 1018.19 1018.56 1018.68 1018.49 1018.26 1018.41 1018.61 1018.70 1019.23 1020.01 1020.75 1020.98 1020.64 1020.67 1020.60 1020.84 1020.93 1020.37 1020.20 1019.85 1019.34 1018.68 1018.29 1018.05 1018.15 1018.17 1017.63 1016.78 1016.31 1015.77 1015.36 1014.98 1014.78 1015.26 1015.43 1015.74 1015.56 1015.30 1014.86 1014.31 1013.99 1014.21 1014.42 1014.33 1014.20
1017.11 1017.61 1017.90 1018.20 1018.33 1018.22 1018.18 1018.39 1018.69 1019.07 1019.48 1019.57 1020.28 1020.42 1020.22 1020.23 1020.46 1020.79 1020.23 1020.11 1019.86 1019.53 1018.63 1018.16 1017.92 1017.81 1017.75 1017.60 1017.27 1016.66 1016.16 1015.83 1015.57 1015.42 1015.22 1015.66 1015.67 1015.61 1015.17 1015.00 1014.83 1014.30 1013.57 1013.39 1013.15 1013.08 1013.11
1016.81 1017.19 1017.55 1017.68 1017.80 1017.96 1018.18 1018.43 1018.71 1019.14 1019.60 1019.93 1019.91 1020.09 1020.55 1020.55 1020.51 1020.13 1019.82 1019.66 1019.49 1019.23 1018.51 1017.99 1017.80 1017.48 1017.10 1017.15 1016.78 1016.48 1016.17 1015.81 1015.45 1015.11 1015.15 1015.36 1015.73 1015.59 1015.51 1015.58 1014.59 1012.88 1012.59 1012.53 1012.69 1012.62 1012.36
1016.30 1016.85 1017.15 1017.32 1017.49 1017.77 1018.06 1018.33 1018.64 1019.13 1019.44 1020.01 1020.00 1020.23 1020.56 1020.28 1020.14 1019.89 1019.78 1019.54 1019.11 1018.74 1018.15 1017.63 1017.16 1017.04 1017.08 1017.71 1017.75 1017.16 1016.68 1015.74 1014.95 1014.62 1014.63 1015.29 1015.43 1015.61 1016.04 1015.40 1013.71 1012.95 1012.27 1012.02 1012.15 1011.60 1011.12
1015.95 1016.32 1016.78 1017.14 1017.34 1017.59 1018.00 1018.20 1018.43 1018.81 1019.27 1020.02 1020.28 1020.30 1020.55 1020.41 1019.50 1019.26 1019.03 1018.83 1018.61 1018.24 1017.71 1016.93 1016.45 1016.37 1016.86 1018.18 1017.90 1017.48 1017.08 1016.29 1015.36 1014.41 1014.26 1014.67 1015.22 1015.77 1016.03 1015.08 1013.56 1012.02 1011.44 1011.47 1011.63 1011.24 1010.49
1015.58 1016.08 1016.44 1016.84 1017.12 1017.45 1017.79 1017.99 1018.28 1018.60 1019.11 1019.89 1020.13 1020.23 1020.65 1020.15 1019.14 1018.97 1018.41 1018.16 1017.93 1017.80 1017.54 1016.92 1016.73 1016.81 1016.96 1017.87 1017.61 1017.43 1016.93 1016.13 1015.67 1014.80 1014.36 1014.91 1015.34 1015.60 1015.19 1014.69 1013.39 1011.72 1011.19 1011.41 1011.92 1011.52 1010.68
1015.18 1015.66 1016.11 1016.53 1016.84 1017.15 1017.46 1017.67 1017.99 1018.46 1018.87 1019.69 1019.84 1019.93 1020.35 1020.10 1019.07 1018.57 1018.02 1017.88 1017.82 1017.71 1017.57 1017.11 1017.26 1017.04 1017.71 1017.73 1017.75 1017.03 1016.87 1016.14 1015.40 1014.54 1014.21 1014.51 1014.89 1015.34 1015.13 1014.63 1013.61 1011.99 1011.66 1011.46 1010.96 1010.84 1010.92
1014.78 1015.30 1015.80 1016.19 1016.57 1016.94 1017.27 1017.46 1017.71 1018.06 1018.50 1019.05 1019.67 1019.67 1019.88 1020.22 1019.00 1018.33 1017.93 1017.47 1017.26 1016.77 1017.19 1017.09 1016.90 1016.67 1016.75 1017.04 1016.79 1016.67 1016.63 1016.07 1015.39 1014.78 1014.04 1014.29 1013.92 1014.31 1014.45 1013.88 1012.92 1012.43 1012.01 1011.22 1010.95 1011.03 1010.79
Wind_Speed
11 11 11 11 10 10 10 10 9 7 6 7 8 7 9 11 11 11 10 11 12 13 12 13 14 17 8 5 10 3 10 11 8 6 4 4 6 3 4 4 5 3 2 5 4 9 4
11 11 12 11 10 10 10 10 10 8 7 5 5 6 7 8 9 10 9 10 10 12 12 10 12 12 3 9 2 4 7 8 5 4 5 4 1 3 3 3 1 3 4 7 6 4 3
6 9 10 10 9 9 10 10 9 7 5 3 1 2 3 4 4 6 8 10 12 11 12 9 8 4 3 17 4 8 5 6 4 2 4 2 1 2 4 6 2 5 6 7 3 1 5
3 6 7 8 7 7 5 4 5 6 7 7 7 6 4 5 7 8 10 12 13 13 11 8 4 2 9 4 4 10 2 4 5 6 4 5 3 1 1 4 7 4 3 4 5 6 5
3 1 3 5 13 10 9 9 9 8 8 6 5 3 2 2 4 7 11 13 16 11 7 3 1 1 12 6 2 5 5 2 1 1 2 2 4 2 5 2 4 6 3 1 9 5 2
10 11 13 13 10 10 8 8 8 9 7 5 4 3 5 8 11 13 16 12 7 1 1 3 1 3 5 5 4 6 3 4 3 1 3 4 5 2 3 3 5 3 1 3 5 5 5
11 11 10 10 8 6 6 5 6 6 5 4 3 5 6 8 9 12 10 4 6 3 3 5 3 6 10 6 6 3 3 7 1 2 4 1 3 8 9 7 2 1 3 5 6 6 4
9 8 8 8 6 6 6 8 7 5 3 2 3 4 6 8 10 11 3 3 3 2 10 10 19 14 18 4 10 9 2 2 2 5 3 2 8 9 5 4 5 4 5 7 7 6 3
11 11 10 10 9 7 7 6 5 3 1 0 1 2 6 8 11 4 2 4 8 3 5 8 6 5 6 8 6 5 9 6 6 4 6 8 5 5 6 5 4 5 5 4 8 3 2
10 9 10 9 9 10 7 6 6 5 4 3 2 4 6 11 5 3 1 6 8 4 4 9 4 6 2 5 5 5 7 5 3 10 6 8 6 9 11 6 7 8 9 9 4 3 5
10 11 11 9 9 8 8 7 6 6 5 4 2 1 5 6 2 1 5 9 5 4 5 2 1 0 1 3 5 5 1 3 3 3 5 9 1 3 3 6 7 7 5 6 3 3 1
9 10 10 10 10 9 9 8 7 7 6 5 4 2 2 3 2 3 7 6 4 8 10 6 3 4 2 2 4 5 3 2 2 3 4 5 3 3 5 3 2 3 3 5 4 3 5
6 8 9 9 10 10 10 9 8 7 7 6 5 3 2 1 2 6 6 4 6 5 4 5 4 5 2 3 3 0 1 1 2 5 3 6 6 7 7 6 3 3 5 3 3 1 7
8 7 5 5 7 8 10 10 10 9 7 6 5 4 3 2 2 5 3 5 4 4 4 4 4 5 2 1 3 3 2 3 4 4 1 3 8 3 2 17 8 9 10 6 5 4 4
7 8 8 7 4 4 9 10 10 10 9 8 10 2 2 3 2 2 4 4 6 5 2 7 5 3 5 4 2 3 3 4 7 10 8 3 6 3 3 3 9 4 6 8 2 2 2
9 8 7 7 6 5 3 9 11 11 10 11 4 2 3 2 2 3 1 8 5 3 5 5 1 2 2 5 6 7 4 3 6 7 4 4 6 3 5 1 1 4 5 4 1 4 5
9 9 8 7 6 6 6 5 8 12 15 11 3 1 3 2 3 0 7 6 3 5 2 2 3 4 3 5 6 5 6 5 5 9 3 2 4 8 3 3 0 3 0 4 3 2 2
10 10 9 8 8 7 6 7 5 10 16 6 3 2 3 2 3 3 6 2 5 4 4 3 3 7 5 4 6 5 7 7 7 2 6 6 2 3 6 5 3 1 2 4 4 5 2
9 8 8 9 7 5 5 6 8 14 14 3 4 0 1 3 3 3 3 4 4 1 2 5 4 4 3 3 5 7 5 5 8 6 4 7 5 4 8 4 4 4 3 4 4 2 3
10 8 8 7 7 6 5 4 5 6 12 4 3 3 2 2 2 4 5 5 5 3 6 7 9 4 3 3 3 6 4 4 6 8 15 11 3 7 8 6 1 5 2 3 4 2 3
11 10 9 8 8 7 5 5 4 5 10 3 1 2 4 4 5 5 6 3 3 4 6 7 4 7 8 6 6 7 5 4 4 6 2 5 10 9 15 15 5 7 7 8 7 6 7
12 13 11 10 8 7 5 4 4 4 9 2 4 3 2 2 3 10 10 5 9 6 5 4 9 5 3 8 13 13 4 2 3 5 2 1 5 3 7 9 9 13 7 8 11 15 14
13 12 11 10 9 8 6 5 6 5 4 2 2 1 2 2 3 3 5 6 6 4 8 12 7 8 8 7 4 7 8 6 7 5 3 2 3 4 14 6 7 10 8 13 6 4 7
14 13 10 11 11 9 7 6 5 7 6 2 1 3 2 3 5 6 6 8 12 14 18 4 3 4 4 2 5 4 5 6 7 8 6 6 4 3 6 4 12 5 3 5 6 8 11
14 13 11 10 10 9 8 8 8 8 9 2 1 2 3 2 5 6 9 8 8 10 12 13 13 11 4 4 1 2 5 4 6 7 8 10 8 6 6 11 13 8 10 5 7 8 11
14 13 12 12 9 8 9 10 11 10 11 3 1 2 0 1 5 7 6 8 9 6 7 5 7 6 5 2 3 4 5 2 4 2 2 7 2 5 3 5 8 3 3 2 3 10 6
15 14 13 12 11 10 11 12 13 12 12 4 2 4 1 4 5 3 5 5 5 1 3 2 2 2 4 3 3 6 4 4 5 5 3 2 1 9 10 7 6 7 6 4 4 8 3
16 15 13 12 12 11 11 12 14 14 14 6 2 4 4 3 4 6 7 6 2 3 2 3 3 3 3 4 2 1 2 5 3 4 3 5 4 4 3 4 7 5 2 6 5 3 4
17 16 14 12 12 12 12 13 14 14 15 10 3 2 3 4 5 4 10 7 7 7 4 4 5 5 4 1 2 1 3 3 4 3 2 4 6 3 6 4 4 4 8 8 2 5 8
Wind_Direction
226 228 231 235 233 236 240 248 252 252 260 276 283 298 309 311 314 314 319 320 324 323 326 335 338 340 2 359 250 303 1 344 346 354 41 35 21 348 340 317 332 179 283 300 271 294 253
228 230 234 236 237 242 240 245 250 251 256 263 281 294 295 296 307 311 318 318 318 314 314 330 337 330 55 304 301 350 360 340 339 334 344 29 327 288 275 296 325 309 266 270 276 247 230
235 242 242 241 233 237 245 244 242 245 248 231 248 298 305 310 328 334 318 313 302 299 296 317 331 324 118 247 330 317 304 205 195 246 303 267 248 16 345 315 329 300 311 325 263 9 246
199 238 242 244 236 235 225 207 206 170 143 116 95 83 63 36 343 338 318 300 289 288 297 297 318 279 246 235 298 299 256 283 221 225 212 255 197 270 190 312 349 358 47 359 309 7 6
134 178 226 141 118 119 124 124 120 122 121 116 102 84 69 45 308 318 301 293 290 295 281 266 129 235 267 318 305 288 207 260 277 136 138 87 70 63 8 63 355 2 254 294 328 17 18
133 119 117 122 126 133 139 140 136 127 122 113 84 52 18 351 349 330 313 297 311 304 128 157 149 320 289 327 318 314 294 317 277 69 50 86 59 56 24 81 238 229 246 286 252 284 344
157 148 147 147 146 148 145 145 147 147 126 88 51 18 359 354 349 340 344 358 10 327 26 219 212 238 279 263 276 265 24 353 299 63 167 92 129 216 212 206 203 320 237 256 271 255 242
198 184 179 174 163 161 165 157 162 171 152 102 355 24 346 349 340 325 46 8 116 179 300 242 250 246 257 23 291 275 187 217 187 208 131 17 232 230 206 203 235 234 262 269 280 255 198
208 193 193 180 175 175 173 170 170 184 200 309 280 329 341 336 333 351 57 353 327 299 262 278 220 238 241 156 234 280 174 184 180 211 200 195 219 119 172 201 222 230 216 238 238 296 293
197 201 194 188 180 172 176 172 171 187 195 214 283 333 347 331 14 356 297 329 318 176 315 283 271 278 183 163 249 220 204 165 211 215 206 244 240 236 246 228 185 248 210 227 208 141 239
203 193 188 197 189 185 183 181 192 196 205 201 205 331 2 40 286 1 326 323 290 60 308 274 280 79 83 169 310 20 183 70 191 189 132 245 224 203 196 225 177 250 188 186 171 194 23
195 196 191 195 199 192 192 193 192 191 192 189 195 182 68 358 10 281 315 309 39 50 253 328 352 355 28 331 316 320 88 77 145 211 287 269 307 212 216 272 193 94 65 48 55 102 262
171 189 187 195 193 195 191 192 192 189 183 188 186 169 111 66 266 325 320 47 46 166 342 343 349 353 325 292 311 269 305 294 174 352 325 323 247 230 189 253 324 143 90 310 310 164 243
128 120 136 162 209 203 195 193 189 186 188 181 157 121 315 236 298 344 30 56 197 181 272 297 328 324 302 277 272 326 309 270 214 155 295 272 322 182 210 213 203 202 163 184 214 206 272
150 138 122 109 114 198 205 190 190 182 173 136 104 9 324 267 205 44 82 185 215 200 293 336 341 13 326 358 202 344 238 234 229 175 184 213 264 301 212 238 172 210 183 214 214 72 40
165 154 140 123 105 82 194 193 183 177 151 132 100 73 262 335 175 48 178 234 213 225 38 356 179 300 289 348 4 22 317 325 303 206 191 248 289 249 280 186 19 182 164 119 27 190 226
179 171 161 150 126 100 75 176 190 166 146 141 89 81 265 213 79 236 219 226 317 298 11 319 329 315 320 307 233 248 226 310 10 339 212 224 161 273 346 343 337 7 66 56 132 87 257
162 162 156 151 146 124 94 72 170 175 149 126 122 200 301 67 83 212 235 251 341 331 330 272 257 226 242 271 287 260 232 189 31 21 358 326 170 283 245 318 289 48 39 99 141 252 165
170 165 162 167 161 150 127 103 71 153 145 140 125 359 53 88 159 223 218 286 280 190 330 355 296 38 338 254 253 226 255 241 142 116 40 332 356 344 332 341 18 54 49 108 100 75 216
184 192 200 195 186 183 164 128 89 162 140 99 133 160 313 196 134 173 209 253 239 229 233 221 253 323 308 285 231 271 287 267 257 172 170 169 197 272 269 263 208 268 196 150 124 154 237
192 198 195 201 205 208 199 172 122 109 163 113 66 187 207 182 206 200 170 236 215 235 220 175 268 223 239 277 290 279 280 308 335 26 332 165 240 242 269 273 229 235 218 191 199 210 222
206 195 196 199 207 210 203 192 148 142 156 132 136 182 183 143 140 203 208 197 229 246 221 239 218 244 271 243 245 261 298 337 279 316 127 196 213 214 278 284 242 259 237 215 225 238 243
193 193 193 199 208 215 214 206 180 180 144 120 152 296 117 203 174 189 202 234 238 216 252 233 245 268 271 282 277 256 234 228 236 224 200 222 239 216 265 273 289 268 195 226 218 196 222
195 200 200 211 214 219 228 221 204 197 154 132 160 127 123 254 219 213 226 216 230 233 249 275 253 225 239 292 318 330 313 267 230 225 194 214 203 199 277 310 247 247 198 223 237 242 245
192 194 204 211 209 220 235 240 229 215 191 120 27 125 194 238 206 227 240 255 271 259 261 259 255 250 88 43 247 313 307 245 224 227 212 209 241 264 252 242 274 286 269 233 193 267 251
189 192 205 219 222 227 240 247 246 224 221 114 211 130 309 254 233 221 229 235 246 255 278 225 250 163 112 203 179 205 248 268 302 273 79 229 174 212 219 247 260 195 154 115 131 292 294
194 198 208 220 222 227 239 241 236 230 222 168 219 179 281 273 226 250 217 215 201 241 262 311 207 98 105 173 215 218 222 216 228 226 201 116 119 226 237 253 281 245 226 125 207 253 325
198 199 205 219 226 232 243 241 228 223 223 185 212 177 174 243 296 260 219 209 248 198 212 292 1 336 140 182 203 170 220 241 251 229 217 213 190 205 218 230 265 351 3 186 215 270 251
196 198 203 214 226 234 240 240 227 220 218 189 209 181 164 220 259 283 278 269 257 228 183 232 212 181 219 182 225 178 213 218 221 256 223 249 195 198 200 235 302 268 260 282 223 263 281